Regional Weather Roundup
Issued by NWS

Home | Current Version | Previous Version | Text Only | Print | Product List | Glossary On
Versions: 1 2 3 4 5 6 7 8 9 10 11 12 13 14 15 16 17 18 19 20 21 22 23 24 25 26 27 28 29 30 31 32 33 34 35 36 37 38 39 40 41 42 43 44 45 46 47 48 49 50
000
ASUS43 KDTX 260501
RWRMI
MICHIGAN HOURLY REGIONAL WEATHER ROUNDUP
NATIONAL WEATHER SERVICE DETROIT/PONTIAC MI
1200 AM EST SUN FEB 26 2017

NOTE: "FAIR" INDICATES FEW OR NO CLOUDS BELOW 12,000 FEET WITH NO
SIGNIFICANT WEATHER AND/OR OBSTRUCTION TO VISIBILITY.

MIZ047>049-052>055-059>063-066>070-074>076-081>083-260600-
SOUTHEAST LOWER MICHIGAN

CITY           SKY/WX    TMP DP  RH WIND       PRES   REMARKS
ADRIAN         CLOUDY    23  14  68 NW12G22   30.00R WCI  12
ALMA           FLURRIES  24  17  74 W12       29.95R WCI  13
ANN ARBOR      CLOUDY    23  14  68 W13       29.97R WCI  11
BAD AXE        CLOUDY    26  18  72 W10G17    29.90R WCI  16
CARO           CLOUDY    25  18  74 W9        29.92R WCI  15
DETROIT CITY   CLOUDY    25  13  60 W8G17     29.97R WCI  16
DETROIT        FLURRIES  25  14  63 W8        29.99R WCI  16
FLINT          FLURRIES  24  16  71 W16       29.95R WCI  11
GROSSE ILE     CLOUDY    25  13  60 W8        29.98S WCI  16
HILLSDALE      FLURRIES  23  18  80 W12       29.96R WCI  12
HOWELL         LGT SNOW  23  18  78 W10       29.95R WCI  13

CITY           SKY/WX    TMP DP  RH WIND       PRES   REMARKS
JACKSON        CLOUDY    22  15  75 W8        29.97R WCI  12
LAMBERTVILLE   CLOUDY    27  16  64 NW6       30.00S WCI  20
LANSING        LGT SNOW  23  16  74 W9        29.97R WCI  13
LAPEER         CLOUDY    25  16  68 W14       29.93R WCI  13
MASON          FLURRIES  23  19  85 W10       29.96S WCI  12
MONROE         CLOUDY    25  16  66 W15G22    30.00R WCI  13
MT. CLEMENS    CLOUDY    26  15  63 W12       29.94R WCI  15
PONTIAC        FLURRIES  23  14  68 W15       29.93R WCI  10
PORT HOPE        N/A     27  18  69 W12G18    29.87R WCI  17
PORT HURON     CLOUDY    25  18  74 W7        29.94R WCI  17
TRI CITIES     CLOUDY    25  18  74 W14       29.94R WCI  13
MIDLAND        FLURRIES  26  17  68 W10       29.92R WCI  16
TROY           CLOUDY    26  12  55 W13G18    29.98R WCI  15
SAGINAW HB     MOCLDY    27  16  63 W12       29.93R WCI  16
$$
MIZ043>046-050>051-056>058-064>065-071>073-077>080-260600-
SOUTHWEST LOWER MICHIGAN

CITY           SKY/WX    TMP DP  RH WIND       PRES   REMARKS
BATTLE CREEK   CLOUDY    23  18  81 W8        29.97S WCI  14
BENTON HARBOR  CLOUDY    27  15  61 W9        30.02R WCI  18
BIG RAPIDS     MOCLDY    22  15  75 W6        29.91S WCI  14
COLDWATER      LGT SNOW  23  20  88 W5        29.98S WCI  17
FREMONT        FAIR      19  15  83 SW5       29.95R WCI  12
HOLLAND        CLOUDY    27  15  61 NW6       29.99R WCI  20
GRAND RAPIDS   FLURRIES  25  16  68 W9        29.96R WCI  15
IONIA          FLURRIES  23  17  77 W7        29.95S WCI  15
KALAMAZOO      CLOUDY    24  16  71 W7        29.98S WCI  16
LUDINGTON      CLEAR     26  16  65 NW12G17   29.92F WCI  16
MARSHALL       FLURRIES  23  17  76 W6        29.97S WCI  16
MOUNT PLEASANT FLURRIES  24  18  77 W12       29.93R WCI  13
MUSKEGON       MOCLDY    28  14  55 NW12G18   29.97R WCI  18
SOUTH HAVEN    CLOUDY    27  17  64 NW6       30.00S WCI  21
$$
MIZ016>042-260600-
NORTHERN LOWER MICHIGAN

CITY           SKY/WX    TMP DP  RH WIND       PRES   REMARKS
ALPENA         FLURRIES  22  18  85 VRB7      29.85R WCI  13
BEAVER ISLAND  PTCLDY    24  15  69 W15G22    29.84R WCI  11
BELLAIRE       FLURRIES  25  16  67 W3        29.89R
CADILLAC       MOCLDY    20  14  77 W6        29.86R WCI  12
CHARLEVOIX     CLOUDY    25  16  66 W20G28    29.89R WCI  11
FRANKFORT      PTCLDY    26  16  65 NW10      29.91R WCI  16
GAYLORD        CLOUDY    21  11  65 W7        29.82R WCI  12
GRAYLING       FLURRIES  23  18  81 W6        29.85R WCI  16
HARBOR SPRINGS CLOUDY    24  13  63 W10G20    29.84R WCI  13
HOUGHTON LAKE  CLOUDY    22  15  75 W16       29.86R WCI   8
MANISTEE       CLEAR     25  15  66 W13       29.92R WCI  14
OSCODA         CLOUDY    26  18  70 W8        29.87R WCI  18
PELLSTON       CLOUDY    24  12  60 W12G20    29.83R WCI  13
TRAVERSE CITY  MOCLDY    23  12  62 W9        29.89R WCI  13
$$
MIZ007>008-015-260600-
EASTERN UPPER MICHIGAN

CITY           SKY/WX    TMP DP  RH WIND       PRES   REMARKS
KINROSS        FLURRIES  19  15  84 W12G20    29.78R WCI   7
MACKINAC ISLAN CLOUDY    24  16  71 W21       29.80R WCI   9
NEWBERRY       CLOUDY    19  14  80 SW12      29.78R WCI   7
S. S. MARIE    LGT SNOW  21  17  84 SW13      29.75S FOG     WCI   9
MUNISING         N/A     18   9  68 SW10      29.81R WCI   6
$$
MIZ004>006-011>014-085-260600-
CENTRAL UPPER MICHIGAN

CITY           SKY/WX    TMP DP  RH WIND       PRES   REMARKS
MANISTIQUE     CLEAR     16  11  80 W5        29.83S WCI   9
ESCANABA       CLEAR     10   7  87 W3        29.87S
MENOMINEE      CLEAR     14   8  77 W6        29.91R WCI   5
SAWYER-GWINN   MOCLDY    16  10  78 SW8       29.79S WCI   5
$$
MIZ001>003-009>011-084-260600-
WESTERN UPPER MICHIGAN

CITY           SKY/WX    TMP DP  RH WIND       PRES   REMARKS
IRON MOUNTAIN  CLOUDY    19   7  59 W5        29.81S WCI  12
HOUGHTON       LGT SNOW  24  16  71 SW7       29.72S WCI  16
COPPER HARBOR    N/A     28  14  55 NW6       29.73S WCI  22
IRONWOOD       LGT SNOW  22  16  78 SW10      29.76R WCI  11
$$

ABBREVIATIONS USED IN REMARKS
   TC - TEMPERATURE IN CELSIUS
  WCI - WIND CHILL INDEX
   HX - HEAT INDEX
  VSB - VISIBILITY





USA.gov is the U.S. government's official web portal to all federal, state and local government web resources and services.